TimeAST,TemperatureF,Dew PointF,Humidity,Sea Level PressureIn,VisibilityMPH,Wind Direction,Wind SpeedMPH,Gust SpeedMPH,PrecipitationIn,Events,Conditions,WindDirDegrees,DateUTC
12:00 AM,82.4,77.0,84,29.89,-9999.0,North,-9999.0,-,N/A,,Unknown,0,2012-11-08 04:00:00
1:00 AM,82.4,75.2,79,29.86,-9999.0,North,-9999.0,-,N/A,,Unknown,0,2012-11-08 05:00:00
2:00 AM,82.4,75.2,79,29.86,-9999.0,North,-9999.0,-,N/A,,Unknown,0,2012-11-08 06:00:00
4:00 AM,80.6,73.4,79,29.86,-9999.0,North,-9999.0,-,N/A,,Unknown,0,2012-11-08 08:00:00
5:00 AM,80.6,73.4,79,29.86,-9999.0,North,-9999.0,-,N/A,,Unknown,0,2012-11-08 09:00:00
6:00 AM,80.6,73.4,79,29.86,-9999.0,North,-9999.0,-,N/A,,Unknown,0,2012-11-08 10:00:00
7:00 AM,82.4,73.4,74,29.89,-9999.0,ENE,4.6,-,N/A,,Unknown,70,2012-11-08 11:00:00
9:00 AM,86.0,73.4,66,29.92,6.2,East,10.4,-,N/A,,Partly Cloudy,100,2012-11-08 13:00:00
10:00 AM,87.8,73.4,62,29.92,6.2,East,11.5,-,N/A,,Partly Cloudy,90,2012-11-08 14:00:00
11:00 AM,87,72,54,29.94,22,East,10.4,,,,Scattered Clouds,90,2012-11-08 15:00:00
11:00 AM,87.8,71.6,58,29.92,6.2,East,10.4,-,N/A,,Partly Cloudy,90,2012-11-08 15:00:00
12:00 PM,87.8,73.4,62,29.89,-9999.0,North,-9999.0,-,N/A,,Unknown,0,2012-11-08 16:00:00
1:00 PM,87.8,73.4,62,29.86,6.2,ESE,10.4,-,N/A,,Scattered Clouds,110,2012-11-08 17:00:00
2:00 PM,89,74,53,,,ENE,4.6,,,,Clear,70,2012-11-08 18:00:00
3:00 PM,87.8,73.4,62,29.80,-9999.0,North,-9999.0,-,N/A,,Unknown,0,2012-11-08 19:00:00
4:00 PM,87.8,71.6,58,29.80,6.2,ESE,11.5,-,N/A,,Scattered Clouds,110,2012-11-08 20:00:00
5:00 PM,85,72,57,29.82,19,East,10.4,,,,Partly Cloudy,100,2012-11-08 21:00:00
5:00 PM,84.2,71.6,66,29.80,-9999.0,North,-9999.0,-,N/A,,Unknown,0,2012-11-08 21:00:00
6:00 PM,84.2,71.6,66,29.80,-9999.0,North,-9999.0,-,N/A,,Unknown,0,2012-11-08 22:00:00
7:00 PM,82.4,71.6,70,29.83,6.2,East,9.2,-,N/A,,Partly Cloudy,100,2012-11-08 23:00:00
8:00 PM,82,72,65,29.88,19,East,8.1,,,,Partly Cloudy,100,2012-11-09 00:00:00
8:00 PM,82.4,71.6,70,29.86,6.2,East,8.1,-,N/A,,Partly Cloudy,100,2012-11-09 00:00:00
9:00 PM,82.4,71.6,70,29.89,-9999.0,North,-9999.0,-,N/A,,Unknown,0,2012-11-09 01:00:00